{"data":{"norad_id":65199,"intl_designator":"2025-176B","name":"STARLINK-34821","alt_names":[],"object_type":"PAYLOAD","status":"ACTIVE","operator":null,"country":"US","launch_date":"2025-08-14","launch_site_code":"AFETR","launch_vehicle":null,"mission":null,"orbit_class":"UNKNOWN","rcs_meters":null,"size_class":null,"mass_kg":null,"dimensions":null,"purposes":["comms"],"wikipedia_slug":null,"has_3d_model":false,"image_url":null,"decayed_at":null,"tle_current":{"epoch":"2026-05-24T11:01:20.275680Z","epoch_age_seconds":115671,"freshness":"FRESH","line1":"1 65199U 25176B   26144.45926245  .00022355  00000+0  67108-3 0  9996","line2":"2 65199  53.1586 159.9038 0001272  87.4384 272.6764 15.34385657 44662","mean_motion":15.34385657,"eccentricity":0.0001272,"inclination_deg":53.1586,"raan_deg":159.9038,"arg_perigee_deg":87.4384,"mean_anomaly_deg":272.6764,"bstar":0.00067108,"rev_number":4466,"period_min":93.848635343442,"perigee_km":461.87571065665,"apogee_km":463.61603125902,"semimajor_km":6840.8828709578,"source":"CELESTRAK","updated_at":"2026-05-25T13:38:20.717579Z"}}}